Regional Weather Roundup
Issued by NWS

Home | Current Version | Previous Version | Text Only | Print | Product List | Glossary Off
Versions: 1 2 3 4 5 6 7 8 9 10 11 12 13 14 15 16 17 18 19 20 21 22 23 24 25 26 27 28 29 30 31 32 33 34 35 36 37 38 39 40 41 42 43 44 45 46 47 48 49 50

259
ASUS43 KFSD 261702
RWRSD

WEATHER ROUNDUP FOR SOUTH DAKOTA
NATIONAL WEATHER SERVICE SIOUX FALLS SD
1200 PM CDT WED JUL 26 2017

NOTE: "FAIR" INDICATES FEW OR NO CLOUDS BELOW 12,000 FEET WITH NO
SIGNIFICANT WEATHER AND/OR OBSTRUCTIONS TO VISIBILITY.


SDZ001>005-009-010-012>017-261800-
NORTHWEST AND NORTH CENTRAL SOUTH DAKOTA

CITY           SKY/WX    TMP DP  RH WIND       PRES   REMARKS
BUFFALO          N/A     83  52  34 SE7       30.11S
FAITH            N/A     81  56  42 SE12      30.16R
MOBRIDGE       SUNNY     82  61  48 E10       30.10S
$$

SDZ012>016-024>037-041>051-057-063-072>074-261800-
SOUTHWEST AND SOUTH CENTRAL SOUTH DAKOTA

CITY           SKY/WX    TMP DP  RH WIND       PRES   REMARKS
RAPID CTY ARPT CLOUDY    77  49  37 VRB7      30.20R
PIERRE         MOSUNNY   83  58  42 E15       30.08S
CUSTER         CLOUDY    70  43  37 E13       30.32R
ELLSWORTH AFB  CLOUDY    78  50  37 E8        30.20R
PHILIP         CLOUDY    84  59  42 E14G21    30.12S
PINE RIDGE     CLOUDY    79  63  57 NE12      30.17S
SPEARFISH      FAIR      79  48  34 E8        30.24S
WINNER         PTSUNNY   83  67  58 NE14      30.08R
$$

SDZ004>011-016>023-039-040-261800-
NORTHEAST SOUTH DAKOTA

CITY           SKY/WX    TMP DP  RH WIND       PRES   REMARKS
ABERDEEN       SUNNY     80  61  52 NE8       30.10R
WATERTOWN      MOSUNNY   76  60  57 NE14      30.08S
BROOKINGS      CLOUDY    76  63  64 NE15      30.07S
SISSETON         N/A     81  62  52 N6        30.07S
$$

SDZ017-020-022-023-036>040-048>070-261800-
SOUTHEAST SOUTH DAKOTA

CITY           SKY/WX    TMP DP  RH WIND       PRES   REMARKS
SIOUX FALLS    CLOUDY    80  72  76 NE14      30.04S
HURON          CLOUDY    77  65  66 E12       30.07R
CHAMBERLAIN    MOSUNNY   82  70  67 E8        30.07R
MITCHELL       CLOUDY    82  72  71 NE13      30.05S
YANKTON        PTSUNNY   82  71  69 NE10      30.01F
$$

ABBREVIATIONS USED IN REMARKS
   TC - TEMPERATURE IN CELSIUS
  WCI - WIND CHILL INDEX
   HX - HEAT INDEX
  VSB - VISIBILITY





USA.gov is the U.S. government's official web portal to all federal, state and local government web resources and services.